Tracking 17921 objects as of 18-January-2017
HD Live streaming from Space Station
objects crossing your sky now

COSMOS 2251 DEB

Track COSMOS 2251 DEB now!
10-day predictions


NORAD ID: 35448
Int'l Code: 1993-036AKS
Perigee: 754.5 km
Apogee: 776.0 km
Inclination: 73.9 °
Period: 100.0 minutes
Semi major axis: 7136 km
RCS: 0.0138 m2 (small)
Launch date: June 16, 1993
Source: Commonwealth of Independent States (former USSR) (CIS)
Launch site: PLESETSK MISSILE AND SPACE COMPLEX (PKMTR)

Note: This is SATELLITE DEBRIS
Your satellite tracking list
Your tracking list is empty





NASA's NSSDC Master Catalog

Two Line Element Set (TLE):
1 35448U 93036AKS 17016.52918206 +.00000298 +00000-0 +10307-3 0  9996
2 35448 073.9092 059.7769 0015070 203.8431 156.2027 14.40122885404098
Source of the keplerian elements: AFSPC